Location: ??
(34.7252°N, 135.5457°E)
Time: 08:31:06
(UTC+00:00)

PSLV R/B - Pass Details

Date: 24 September 2020
Orbit: 568 x 598 km, 98.2° (Epoch: 28 October)

Event Time Altitude Azimuth Distance (km) Brightness Sun altitude
Rises 20:05:25 0° 161° (SSE) 2,756 7.6 -9.6°
Reaches altitude 10° 20:07:33 10° 159° (SSE) 1,865 6.7 -9.1°
Maximum altitude 20:11:34 70° 76° (ENE) 613 4.3 -8.3°
Drops below altitude 10° 20:15:38 10° 353° (N) 1,891 6.5 -7.5°
Sets 20:17:48 0° 351° (N) 2,798 7.4 -7.0°
